Погода в Тчеве

Польша     54°05′31″N   18°46′39″E
В апреле 2022 года жителям России запретили посещать сайт meteo.paraplan.net по решению Генеральной прокуратуры. Аудитория сайта уменьшилась в 10 раз. Владельцы сайта не видят смысла в поддержке погодного сервера в таких условиях. Сайт будет закрыт в октябре.
темп.,
°C
ветер,
м/с
пор.,
м/с
влажн.,
%
обл.,
%
осадки,
мм/ч
давл.,
гПа
погр.,
м
30 сентября, пт
пт3023:00+11юз3567100 0.0 1008148
02:00+10юз3569100 0.0 1009141
05:00+9ююз237584 0.0 101086
08:00+9ююз2373100 0.0 1012118
11:00+13ююз2254100 0.0 1013587
14:00+15ююв33475 0.0 10131558
17:00+14ю23505 0.0 1012281
20:00+10ююз336329 0.0 101426
1 октября, сб
сб123:00+11ю3359100 0.0 101467
02:00+11ю3665100 0.0 1013159
05:00+8ююз37785 0.0 1013123
08:00+10ю4974100 0.0 1012294
11:00+14ю6959100 0.0 1011644
14:00+16ююз71054100 0.0 10091208
17:00+14ю51061100 0.0 1008710
20:00+12ю4978100 0.3 1007259
2 октября, вс
вс223:00+10ююз3888100 0.5 1007497
02:00+11юз41091100 1.3 1006659
05:00+11зюз51091100 0.1 1007535
08:00+12з6128172 0.3 1008742
11:00+13з71173100 0.0 10091030
14:00+13з7117178 0.0 10101061
17:00+14з611665 0.0 10111127
20:00+11з612827 0.0 1012543
3 октября, пн
пн323:00+10з612873 0.0 1012446
02:00+10з512901 0.0 1013391
05:00+9з5119416 0.0 1013373
08:00+12зсз7127765 0.0 1013854
11:00+13з71173100 0.1 10131360
14:00+15зсз9126285 0.1 10131413
17:00+14зсз813725 0.4 10121223
20:00+12зсз713785 0.4 1012653
4 октября, вт
вт423:00+11зсз6138481 0.1 1012434
02:00+10зсз612881 0.1 1013284
05:00+9зсз511925 0.0 1013236
08:00+9зсз41188100 0.0 1014338
11:00+14сз6760100 0.0 10151163
14:00+16сз45465 0.0 10151753
17:00+15зсз46515 0.0 1016327
20:00+11зсз35755 0.0 101787